Torna al catalogo

STARLINK-37118

AttivoComunicazioniSSO
NORAD 68299·PAYLOAD·🇺🇸 United States

Lanciato Mar 20, 2026 da Vandenberg Space Force Base

Loading…

Prossimi Passaggi (prossime 24 ore)

TLE

AggiornatoSource: CelesTrak SupGP

Epoca: Sep 14, 2026, 15:13 UTC

1 68299C 26057F   26257.63451389  .00040198  00000+0  12477-2 0  2576
2 68299  97.2862  23.0582 0000742 128.3027 133.6202 15.33422426    16

Traccia STARLINK-37118 in tempo reale con AllMySat

Download on the App Store